232P/Hill (2019)

Japanese version
Home page
Updated on October 28, 2018

---------------------------------------------------------------------

* Profile

* Orbital Elements

Epoch 2019 Mar. 18.0 TT = JDT 2458560.5
T 2019 Apr. 6.59106 TT                                  MPCW
q   2.9845283            (2000.0)            P               Q
n   0.10372369     Peri.   53.54956     -0.31349002     -0.92619814
a   4.4862563      Node    56.03032     +0.77024037     -0.37703712
e   0.3347397      Incl.   14.63059     +0.55538616     +0.00009964
P   9.50
From 216 observations 1999 Dec. 12-2018 Oct. 6, mean residual 0".6.

* Magnitudes Graph

        m1 = 4.0 + 5 log d + 25 log r

---------------------------------------------------------------------

The orbital elements are published on M.P.E.C. 2018-U70.
The magnitudes graphs are made with Comet for Windows.

---------------------------------------------------------------------

Copyright(C) Seiichi Yoshida (comet@aerith.net). All rights reserved.